Date String (YYYY-MM-DD hh:mm:ss) UTC,Instrument flags,Ambient pressure (hPa),Sample flow (lpm),Bypass flow (lpm),Sample temperature (°C),Ambient temperature (°C),ASC tube jacket temperature (°C),LED temperature (°C),Box temperature (°C),Sample RH (%),Span deviation,Mass concentration (μg/m³),Mass concentration (μg/m³),Mass concentration (μg/m³)
DateTimeUTC,F1_M11,P_M11,Q1_M11,Q2_M11,T1_M11,T2_M11,T3_M11,T4_M11,T5_M11,U1_M11,ZSPAN_M11,X2_M11,X0_M11,X1_M11
2022-01-16 08:00:00,,0825.5,5.02,0.00,22.8,22.1,00.0,31.8,24.6,06.0,0000.0,0003.57,0006.78,0003.30
2022-01-16 08:01:00,,0825.6,4.99,0.00,22.8,22.1,00.0,31.8,24.6,06.0,0000.0,0003.59,0006.54,0003.32
2022-01-16 08:02:00,,0825.5,5.01,0.00,22.8,22.1,00.0,31.8,24.6,06.1,0000.0,0003.63,0006.56,0003.35
2022-01-16 08:03:00,,0825.5,4.99,0.00,22.8,22.1,00.0,31.8,24.6,06.6,0000.0,0003.69,0006.72,0003.39
2022-01-16 08:04:00,,0825.6,5.01,0.00,22.8,22.1,00.0,31.8,24.6,06.5,0000.0,0003.71,0006.68,0003.42
2022-01-16 08:05:00,,0825.6,4.98,0.00,22.8,22.1,00.0,31.8,24.6,06.6,0000.0,0003.74,0006.72,0003.46
2022-01-16 08:06:00,,0825.7,5.01,0.00,22.8,22.1,00.0,31.8,24.6,06.5,0000.0,0003.76,0006.93,0003.47
2022-01-16 08:07:00,,0825.7,4.99,0.00,22.8,22.1,00.0,31.8,24.6,06.2,0000.0,0003.76,0006.53,0003.48
2022-01-16 08:08:00,,0825.5,5.00,0.00,22.8,22.1,00.0,31.8,24.7,05.9,0000.0,0003.72,0005.68,0003.47
2022-01-16 08:09:00,,0825.4,5.01,0.00,22.8,22.1,00.0,31.8,24.6,05.6,0000.0,0003.70,0005.66,0003.44
2022-01-16 08:10:00,,0825.4,5.01,0.00,22.8,22.1,00.0,31.8,24.6,05.5,0000.0,0003.64,0005.70,0003.39
2022-01-16 08:11:00,,0825.5,4.99,0.00,22.8,22.1,00.0,31.8,24.6,05.9,0000.0,0003.59,0005.55,0003.35
2022-01-16 08:12:00,,0825.5,5.02,0.00,22.8,22.2,00.0,31.8,24.6,05.6,0000.0,0003.55,0005.85,0003.30
2022-01-16 08:13:00,,0825.5,4.98,0.00,22.8,22.2,00.0,31.8,24.7,05.2,0000.0,0003.48,0006.45,0003.23
2022-01-16 08:14:00,,0825.3,5.01,0.00,22.8,22.2,00.0,31.8,24.7,05.2,0000.0,0003.37,0006.18,0003.13
2022-01-16 08:15:00,,0825.2,4.98,0.00,22.8,22.2,00.0,31.8,24.7,05.1,0000.0,0003.27,0005.94,0002.97
2022-01-16 08:16:00,,0825.1,5.02,0.00,22.9,22.2,00.0,31.8,24.7,04.8,0000.0,0003.14,0005.65,0002.77
2022-01-16 08:17:00,,0825.1,5.00,0.00,22.9,22.2,00.0,31.8,24.7,04.6,0000.0,0002.94,0005.20,0002.57
2022-01-16 08:18:00,,0825.2,5.00,0.00,22.9,22.2,00.0,31.8,24.7,04.3,0000.0,0002.73,0004.86,0002.38
2022-01-16 08:19:00,,0825.3,4.99,0.00,22.9,22.2,00.0,31.8,24.7,04.2,0000.0,0002.54,0004.63,0002.21
2022-01-16 08:20:00,,0825.4,5.01,0.00,22.9,22.2,00.0,31.8,24.7,04.2,0000.0,0002.39,0004.38,0002.08
2022-01-16 08:21:00,,0825.4,4.98,0.00,22.9,22.2,00.0,31.8,24.7,04.2,0000.0,0002.27,0004.08,0001.96
2022-01-16 08:22:00,,0825.4,5.01,0.00,22.9,22.2,00.0,31.8,24.7,04.3,0000.0,0002.08,0003.79,0001.81
2022-01-16 08:23:00,,0825.4,5.00,0.00,22.9,22.2,00.0,31.8,24.7,04.4,0000.0,0001.91,0003.19,0001.69
2022-01-16 08:24:00,,0825.4,5.00,0.00,22.9,22.2,00.0,31.8,24.7,04.4,0000.0,0001.82,0002.31,0001.62
2022-01-16 08:25:00,,0825.5,5.01,0.00,22.9,22.2,00.0,31.8,24.7,04.5,0000.0,0001.77,0002.25,0001.57
2022-01-16 08:26:00,,0825.5,4.99,0.00,22.9,22.2,00.0,31.9,24.7,04.7,0000.0,0001.76,0002.25,0001.54
2022-01-16 08:27:00,,0825.4,5.02,0.00,22.9,22.2,00.0,31.8,24.8,04.8,0000.0,0001.78,0002.34,0001.54
2022-01-16 08:28:00,,0825.5,4.99,0.00,22.9,22.2,00.0,31.9,24.7,04.7,0000.0,0001.79,0002.42,0001.55
2022-01-16 08:29:00,,0825.5,5.00,0.00,22.9,22.2,00.0,31.9,24.7,04.9,0000.0,0001.85,0002.50,0001.60
2022-01-16 08:30:00,,0825.6,5.00,0.00,22.9,22.2,00.0,31.9,24.7,05.1,0000.0,0001.95,0002.71,0001.69
2022-01-16 08:31:00,,0825.7,5.01,0.00,22.9,22.2,00.0,31.9,24.7,05.2,0000.0,0002.06,0002.87,0001.77
2022-01-16 08:32:00,,0825.8,4.99,0.00,22.9,22.2,00.0,31.8,24.7,05.4,0000.0,0002.20,0003.05,0001.88
2022-01-16 08:33:00,,0825.8,5.00,0.00,22.9,22.2,00.0,31.8,24.7,05.5,0000.0,0002.33,0003.25,0001.99
2022-01-16 08:34:00,,0825.7,5.00,0.00,22.9,22.2,00.0,31.8,24.7,05.6,0000.0,0002.47,0003.49,0002.08
2022-01-16 08:35:00,,0825.7,5.01,0.00,22.9,22.2,00.0,31.8,24.6,05.7,0000.0,0002.64,0005.06,0002.20
2022-01-16 08:36:00,,0825.8,4.99,0.00,22.9,22.2,00.0,31.8,24.6,05.9,0000.0,0002.76,0005.28,0002.30
2022-01-16 08:37:00,,0825.8,5.01,0.00,22.8,22.2,00.0,31.8,24.6,06.3,0000.0,0002.83,0005.42,0002.39
2022-01-16 08:38:00,,0825.9,5.00,0.00,22.8,22.1,00.0,31.8,24.6,06.4,0000.0,0002.96,0005.55,0002.51
2022-01-16 08:39:00,,0825.7,4.99,0.00,22.8,22.1,00.0,31.8,24.5,06.7,0000.0,0003.12,0005.72,0002.65
2022-01-16 08:40:00,,0825.6,5.01,0.00,22.8,22.1,00.0,31.8,24.5,07.1,0000.0,0003.20,0005.86,0002.81
2022-01-16 08:41:00,,0825.6,4.99,0.00,22.7,22.0,00.0,31.8,24.5,06.9,0000.0,0003.27,0005.90,0002.93
2022-01-16 08:42:00,,0825.7,4.99,0.00,22.7,22.0,00.0,31.8,24.4,06.9,0000.0,0003.33,0005.97,0003.07
2022-01-16 08:43:00,,0825.8,5.00,0.00,22.7,21.9,00.0,31.8,24.4,06.8,0000.0,0003.40,0006.38,0003.17
2022-01-16 08:44:00,,0825.7,5.01,0.00,22.6,21.9,00.0,31.7,24.4,06.8,0000.0,0003.47,0006.68,0003.24
2022-01-16 08:45:00,,0825.7,5.00,0.00,22.6,21.9,00.0,31.7,24.3,06.6,0000.0,0003.53,0006.73,0003.31
2022-01-16 08:46:00,,0825.7,5.01,0.00,22.6,21.8,00.0,31.7,24.3,06.6,0000.0,0003.57,0005.38,0003.37
2022-01-16 08:47:00,,0825.7,4.98,0.00,22.6,21.8,00.0,31.7,24.3,06.2,0000.0,0003.61,0006.02,0003.40
2022-01-16 08:48:00,,0825.7,5.02,0.00,22.5,21.8,00.0,31.7,24.3,05.6,0000.0,0003.61,0006.21,0003.40
2022-01-16 08:49:00,,0825.7,4.99,0.00,22.5,21.8,00.0,31.7,24.3,05.9,0000.0,0003.60,0006.16,0003.39
2022-01-16 08:50:00,,0825.7,5.01,0.00,22.5,21.8,00.0,31.6,24.2,06.9,0000.0,0003.60,0006.20,0003.40
2022-01-16 08:51:00,,0825.7,4.99,0.00,22.5,21.8,00.0,31.6,24.2,07.1,0000.0,0003.67,0006.63,0003.44
2022-01-16 08:52:00,,0825.8,5.00,0.00,22.4,21.7,00.0,31.6,24.1,06.8,0000.0,0003.72,0006.84,0003.46
2022-01-16 08:53:00,,0825.8,5.01,0.00,22.4,21.7,00.0,31.6,24.1,05.9,0000.0,0003.72,0007.29,0003.44
2022-01-16 08:54:00,,0825.8,5.01,0.00,22.4,21.7,00.0,31.6,24.1,05.9,0000.0,0003.68,0007.32,0003.39
2022-01-16 08:55:00,,0825.8,5.00,0.00,22.4,21.7,00.0,31.5,24.1,05.7,0000.0,0003.62,0007.00,0003.34
2022-01-16 08:56:00,,0825.7,5.00,0.00,22.3,21.6,00.0,31.5,24.1,06.3,0000.0,0003.58,0007.13,0003.31
2022-01-16 08:57:00,,0825.7,5.00,0.00,22.3,21.6,00.0,31.5,24.1,05.9,0000.0,0003.57,0007.17,0003.28
2022-01-16 08:58:00,,0825.7,5.00,0.00,22.3,21.6,00.0,31.5,24.1,06.0,0000.0,0003.56,0006.60,0003.26
2022-01-16 08:59:00,,0825.8,5.00,0.00,22.3,21.6,00.0,31.5,24.1,06.1,0000.0,0003.60,0006.53,0003.30
